TimeCDT,TemperatureF,Dew PointF,Humidity,Sea Level PressureIn,VisibilityMPH,Wind Direction,Wind SpeedMPH,Gust SpeedMPH,PrecipitationIn,Events,Conditions,WindDirDegrees,DateUTC
12:55 AM,73.0,64.9,76,29.75,10.0,South,20.7,-,N/A,,Clear,170,2013-10-03 05:55:00
1:55 AM,72.0,64.9,78,29.75,10.0,South,16.1,-,N/A,,Clear,170,2013-10-03 06:55:00
2:55 AM,71.1,66.0,84,29.74,9.0,South,15.0,-,N/A,,Clear,170,2013-10-03 07:55:00
3:55 AM,71.1,66.0,84,29.73,9.0,South,13.8,-,0.00,,Partly Cloudy,170,2013-10-03 08:55:00
4:05 AM,71.1,66.0,84,29.79,9.0,North,6.9,-,N/A,Thunderstorm,Scattered Clouds,10,2013-10-03 09:05:00
4:24 AM,64.9,61.0,87,29.79,5.0,ENE,9.2,-,0.02,Rain-Thunderstorm,Thunderstorms and Rain,60,2013-10-03 09:24:00
4:55 AM,62.1,60.1,93,29.80,7.0,NE,13.8,20.7,0.03,Rain-Thunderstorm,Light Rain,40,2013-10-03 09:55:00
5:02 AM,62.1,60.1,93,29.84,8.0,East,13.8,18.4,0.00,Rain-Thunderstorm,Light Rain,100,2013-10-03 10:02:00
5:20 AM,61.0,60.1,97,29.81,6.0,ENE,17.3,26.5,0.00,Rain-Thunderstorm,Light Rain,60,2013-10-03 10:20:00
5:27 AM,61.0,60.1,97,29.82,7.0,East,10.4,-,0.00,Rain,Light Rain,80,2013-10-03 10:27:00
5:41 AM,61.0,60.1,97,29.83,10.0,ESE,11.5,17.3,0.00,,Overcast,110,2013-10-03 10:41:00
5:55 AM,61.0,60.1,97,29.80,10.0,East,11.5,-,0.00,,Overcast,80,2013-10-03 10:55:00
6:26 AM,61.0,60.1,97,29.86,10.0,NNE,15.0,-,N/A,,Overcast,30,2013-10-03 11:26:00
6:51 AM,60.8,60.8,100,29.84,6.0,ENE,10.4,-,0.00,Rain,Light Rain,70,2013-10-03 11:51:00
6:55 AM,61.0,60.1,97,29.81,5.0,ENE,6.9,-,0.01,Rain,Light Rain,70,2013-10-03 11:55:00
7:12 AM,61.0,60.1,97,29.83,7.0,East,11.5,19.6,0.00,Rain,Light Rain,80,2013-10-03 12:12:00
7:55 AM,61.0,60.1,97,29.79,10.0,ESE,11.5,-,0.01,,Overcast,110,2013-10-03 12:55:00
8:35 AM,61.0,60.1,97,29.82,10.0,ESE,11.5,-,N/A,,Mostly Cloudy,110,2013-10-03 13:35:00
8:55 AM,62.1,60.1,93,29.79,10.0,ESE,13.8,20.7,N/A,,Mostly Cloudy,110,2013-10-03 13:55:00
9:10 AM,62.1,61.0,96,29.82,10.0,ESE,11.5,-,N/A,,Mostly Cloudy,120,2013-10-03 14:10:00
9:39 AM,63.0,61.0,93,29.83,10.0,ESE,13.8,-,N/A,,Overcast,120,2013-10-03 14:39:00
9:55 AM,63.0,61.0,93,29.79,10.0,ESE,13.8,-,N/A,,Overcast,120,2013-10-03 14:55:00
10:36 AM,66.0,63.0,90,29.81,10.0,ESE,20.7,25.3,N/A,,Overcast,120,2013-10-03 15:36:00
10:48 AM,66.0,63.0,90,29.80,10.0,ESE,19.6,26.5,N/A,,Mostly Cloudy,120,2013-10-03 15:48:00
10:55 AM,66.9,63.0,87,29.76,10.0,ESE,19.6,28.8,N/A,,Mostly Cloudy,120,2013-10-03 15:55:00
11:24 AM,69.1,64.0,84,29.79,10.0,SE,20.7,27.6,N/A,,Scattered Clouds,130,2013-10-03 16:24:00
11:55 AM,72.0,64.9,78,29.73,10.0,SE,20.7,28.8,N/A,,Partly Cloudy,130,2013-10-03 16:55:00
12:33 PM,73.9,66.0,76,29.75,10.0,SE,21.9,29.9,N/A,,Mostly Cloudy,140,2013-10-03 17:33:00
12:41 PM,75.0,66.0,73,29.74,10.0,SSE,21.9,28.8,N/A,,Scattered Clouds,150,2013-10-03 17:41:00
12:55 PM,75.9,66.0,71,29.69,10.0,SE,21.9,27.6,N/A,,Partly Cloudy,140,2013-10-03 17:55:00
1:55 PM,79.0,66.0,64,29.65,10.0,SSE,23.0,29.9,N/A,,Scattered Clouds,150,2013-10-03 18:55:00
2:55 PM,82.0,66.0,58,29.63,10.0,South,23.0,28.8,N/A,,Scattered Clouds,170,2013-10-03 19:55:00
3:55 PM,86.0,64.0,48,29.62,10.0,South,20.7,27.6,N/A,,Clear,180,2013-10-03 20:55:00
4:55 PM,87.1,64.0,46,29.61,10.0,SSE,15.0,-,N/A,,Clear,160,2013-10-03 21:55:00
5:55 PM,86.0,63.0,46,29.61,10.0,South,13.8,24.2,N/A,,Clear,180,2013-10-03 22:55:00
6:55 PM,82.0,64.9,56,29.62,9.0,SSE,9.2,-,N/A,,Clear,160,2013-10-03 23:55:00
7:55 PM,79.0,66.0,64,29.63,9.0,SSE,12.7,-,N/A,,Clear,160,2013-10-04 00:55:00
8:55 PM,78.1,66.0,66,29.64,10.0,SSE,12.7,-,N/A,,Clear,160,2013-10-04 01:55:00
9:55 PM,77.0,66.0,69,29.65,10.0,South,16.1,23.0,N/A,,Clear,170,2013-10-04 02:55:00
11:55 PM,75.0,66.0,73,29.64,10.0,South,16.1,-,N/A,,Clear,170,2013-10-04 04:55:00